Location: Caualo
(45.5667°N, 10.8667°E)
Time: 20:57:38
(UTC+00:00)

Cosmos 2084 Rocket - Pass Details

Date: 07 June 2020
Orbit: 557 x 624 km, 62.8° (Epoch: 11 July)

Event Time Altitude Azimuth Distance (km) Brightness Sun altitude
Rises 00:06:58 0° 319° (NW) 2,874 7.5 -20.7°
Reaches altitude 10° 00:09:14 10° 318° (NW) 1,975 6.6 -20.6°
Maximum altitude 00:13:42 77° 234° (SW) 638 3.4 -20.4°
Enters shadow 00:14:59 46° 157° (SSE) 832 3.8 -20.3°
